TimePST,TemperatureF,Dew PointF,Humidity,Sea Level PressureIn,VisibilityMPH,Wind Direction,Wind SpeedMPH,Gust SpeedMPH,PrecipitationIn,Events,Conditions,WindDirDegrees,DateUTC
12:52 AM,55.0,43.0,64,30.02,6.0,North,4.6,-,N/A,,Haze,350,2013-02-07 08:52:00
1:52 AM,54.0,42.1,64,30.02,7.0,North,8.1,-,N/A,,Clear,360,2013-02-07 09:52:00
2:52 AM,50.0,39.9,68,30.02,7.0,North,5.8,-,N/A,,Clear,350,2013-02-07 10:52:00
3:52 AM,44.1,37.0,76,30.01,6.0,Calm,Calm,-,N/A,,Haze,0,2013-02-07 11:52:00
4:52 AM,44.1,37.0,76,30.00,7.0,NNE,4.6,-,N/A,,Clear,20,2013-02-07 12:52:00
5:52 AM,41.0,37.0,86,30.02,7.0,Calm,Calm,-,N/A,,Clear,0,2013-02-07 13:52:00
7:52 AM,48.9,39.0,69,30.05,5.0,Calm,Calm,-,N/A,,Haze,0,2013-02-07 15:52:00
8:52 AM,57.9,41.0,53,30.06,8.0,South,4.6,-,N/A,,Clear,170,2013-02-07 16:52:00
9:52 AM,63.0,45.0,52,30.06,7.0,Calm,Calm,-,N/A,,Clear,0,2013-02-07 17:52:00
10:52 AM,66.9,41.0,39,30.04,8.0,Calm,Calm,-,N/A,,Clear,0,2013-02-07 18:52:00
11:52 AM,70.0,39.9,33,30.01,8.0,Variable,3.5,-,N/A,,Clear,0,2013-02-07 19:52:00
12:52 PM,73.0,33.1,23,29.97,10.0,SSE,6.9,-,N/A,,Clear,160,2013-02-07 20:52:00
1:52 PM,73.9,28.9,19,29.94,10.0,SSE,10.4,-,N/A,,Clear,160,2013-02-07 21:52:00
2:52 PM,73.0,30.9,21,29.92,10.0,SE,5.8,-,N/A,,Clear,130,2013-02-07 22:52:00
3:52 PM,73.0,30.9,21,29.91,10.0,South,5.8,-,N/A,,Clear,170,2013-02-07 23:52:00
4:52 PM,68.0,34.0,28,29.88,10.0,ESE,4.6,-,N/A,,Clear,110,2013-02-08 00:52:00
5:52 PM,60.1,33.1,36,29.88,10.0,Calm,Calm,-,N/A,,Clear,0,2013-02-08 01:52:00
6:52 PM,59.0,34.0,39,29.88,10.0,Calm,Calm,-,N/A,,Clear,0,2013-02-08 02:52:00
7:52 PM,55.9,36.0,47,29.87,10.0,NNW,3.5,-,N/A,,Clear,340,2013-02-08 03:52:00
8:52 PM,62.1,43.0,50,29.86,10.0,NNW,8.1,-,N/A,,Clear,330,2013-02-08 04:52:00
9:52 PM,60.1,43.0,53,29.85,10.0,NNW,11.5,-,N/A,,Clear,330,2013-02-08 05:52:00
10:52 PM,59.0,39.9,49,29.84,10.0,North,5.8,-,N/A,,Clear,350,2013-02-08 06:52:00
11:52 PM,60.1,37.0,42,29.84,9.0,NW,17.3,26.5,N/A,,Clear,320,2013-02-08 07:52:00